This is the latest recevied weather packets stored in our database for station/object OE-11208. If no packets are shown the sender has not sent any weather packets the latest 10 day(s).
| Time | Temp. | Humidity | Pressure | Rain* | Wind** | Luminosity | Snow |
|---|---|---|---|---|---|---|---|
| 1787979322 | 12.22° C | 94% | 1019.8 hPa | 0 mm | - | 7 W/m² | - |
| 1787978495 | 12.22° C | 95% | 1019.9 hPa | 0 mm | - | 0 W/m² | - |
| 1787978121 | 12.22° C | 95% | 1020 hPa | 0 mm | - | 0 W/m² | - |
| 1787977522 | 12.22° C | 94% | 1020.2 hPa | 0 mm | - | 0 W/m² | - |
| 1787976695 | 12.22° C | 95% | 1020.2 hPa | 0 mm | - | 0 W/m² | - |
| 1787976322 | 12.22° C | 95% | 1020.1 hPa | 0 mm | - | 0 W/m² | - |
| 1787975722 | 12.22° C | 95% | 1020.3 hPa | 0 mm | - | 0 W/m² | - |
| 1787975122 | 12.22° C | 95% | 1020.4 hPa | 0 mm | - | 0 W/m² | - |
| 1787974521 | 12.22° C | 94% | 1020.4 hPa | 0 mm | - | 0 W/m² | - |
| 1787973922 | 12.22° C | 94% | 1020.5 hPa | 0 mm | - | 0 W/m² | - |
| 1787973094 | 12.22° C | 93% | 1020.5 hPa | 0 mm | - | 0 W/m² | - |
| 1787972722 | 12.22° C | 94% | 1020.8 hPa | 0 mm | - | 0 W/m² | - |
| 1787972122 | 12.22° C | 94% | 1020.8 hPa | 0.51 mm | - | 0 W/m² | - |
| 1787971295 | 12.22° C | 94% | 1020.8 hPa | 1.27 mm | - | 0 W/m² | - |
| 1787970922 | 12.22° C | 94% | 1020.8 hPa | 1.52 mm | - | 0 W/m² | - |
| 1787970322 | 12.22° C | 94% | 1020.8 hPa | 1.52 mm | - | 0 W/m² | - |
| 1787969494 | 12.22° C | 94% | 1020.8 hPa | 1.78 mm | - | 0 W/m² | - |
| 1787969121 | 12.22° C | 94% | 1021.3 hPa | 1.78 mm | - | 0 W/m² | - |
| 1787968522 | 12.22° C | 93% | 1021.1 hPa | 2.03 mm | - | 0 W/m² | - |
| 1787967694 | 12.78° C | 94% | 1021.4 hPa | 2.29 mm | - | 0 W/m² | - |
| 1787967322 | 12.78° C | 94% | 1021.1 hPa | 1.78 mm | - | 0 W/m² | - |
| 1787966722 | 12.78° C | 93% | 1021.3 hPa | 1.78 mm | - | 0 W/m² | - |
| 1787965895 | 12.78° C | 91% | 1021.2 hPa | 1.78 mm | - | 0 W/m² | - |
| 1787964922 | 12.78° C | 90% | 1020.6 hPa | 1.52 mm | - | 0 W/m² | - |
| 1787964095 | 12.78° C | 88% | 1020.8 hPa | 1.27 mm | - | 0 W/m² | - |
* Rain latest hour (hover to see other rain measurements)
** Current wind speed in m/s (hover to see current wind gust speed)